| time (UTC) | temp C | wind direction | speed KPH | gust KPH | rain 1hr cm | rain 24hr cm | rain mn cm | humidity % | barometer mb |
| 20260510094532 | 13 | 296 | 0.0 | 4.8 | 0.00 | 0.00 | 0.00 | 82 | 1013.3 |
| 20260510093103 | 13 | 66 | 0.0 | 1.6 | 0.00 | 0.00 | 0.00 | 83 | 1013.2 |
| 20260510091536 | 13 | 66 | 0.0 | 1.6 | 0.00 | 0.00 | 0.00 | 83 | 1013.1 |
| 20260510084533 | 13 | 66 | 0.0 | 4.8 | 0.00 | 0.00 | 0.00 | 84 | 1013.4 |
| 20260510083102 | 13 | 45 | 0.0 | 3.2 | 0.00 | 0.00 | 0.00 | 87 | 1013.1 |
| 20260510081527 | 13 | 45 | 0.0 | 6.4 | 0.00 | 0.00 | 0.00 | 88 | 1013.2 |
| 20260510080059 | 13 | 62 | 1.6 | 4.8 | 0.00 | 0.00 | 0.00 | 91 | 1013.0 |
| 20260510074522 | 14 | 228 | 0.0 | 0.0 | 0.00 | 0.00 | 0.00 | 92 | 1012.8 |
| 20260510073054 | 14 | 228 | 0.0 | 0.0 | 0.00 | 0.00 | 0.00 | 92 | 1012.8 |
| 20260510071534 | 14 | 228 | 0.0 | 0.0 | 0.00 | 0.00 | 0.00 | 89 | 1012.5 |
| 20260510070053 | 14 | 228 | 0.0 | 0.0 | 0.00 | 0.00 | 0.00 | 89 | 1012.7 |
| 20260510064521 | 15 | 228 | 0.0 | 3.2 | 0.00 | 0.00 | 0.00 | 89 | 1012.9 |
| 20260510063053 | 15 | 239 | 0.0 | 1.6 | 0.00 | 0.00 | 0.00 | 89 | 1012.9 |
| 20260510061536 | 15 | 239 | 0.0 | 0.0 | 0.00 | 0.00 | 0.00 | 88 | 1013.0 |
| 20260510060053 | 15 | 239 | 0.0 | 1.6 | 0.00 | 0.00 | 0.00 | 87 | 1013.0 |
| 20260510054521 | 16 | 100 | 1.6 | 3.2 | 0.00 | 0.00 | 0.00 | 86 | 1013.1 |
| 20260510053052 | 16 | 100 | 0.0 | 0.0 | 0.00 | 0.00 | 0.00 | 84 | 1012.9 |
| 20260510051521 | 16 | 100 | 0.0 | 3.2 | 0.00 | 0.00 | 0.00 | 85 | 1012.8 |
| 20260510050052 | 16 | 100 | 0.0 | 0.0 | 0.00 | 0.00 | 0.00 | 82 | 1012.5 |
| 20260510044521 | 17 | 100 | 0.0 | 1.6 | 0.00 | 0.00 | 0.00 | 82 | 1012.4 |
| 20260510043057 | 17 | 100 | 0.0 | 1.6 | 0.00 | 0.00 | 0.00 | 80 | 1012.5 |
| 20260510041521 | 17 | 100 | 0.0 | 0.0 | 0.00 | 0.00 | 0.00 | 74 | 1012.3 |
| 20260510040058 | 18 | 101 | 0.0 | 0.0 | 0.00 | 0.00 | 0.00 | 75 | 1011.9 |
| 20260510034522 | 18 | 101 | 0.0 | 0.0 | 0.00 | 0.00 | 0.00 | 73 | 1011.9 |
| 20260510033113 | 18 | 101 | 0.0 | 1.6 | 0.00 | 0.00 | 0.00 | 72 | 1011.8 |
| 20260510031536 | 18 | 101 | 0.0 | 0.0 | 0.00 | 0.00 | 0.00 | 70 | 1011.6 |
| 20260510030054 | 18 | 101 | 0.0 | 0.0 | 0.00 | 0.00 | 0.00 | 65 | 1011.5 |
| 20260510024534 | 19 | 101 | 0.0 | 0.0 | 0.00 | 0.00 | 0.00 | 64 | 1011.1 |
| 20260510023054 | 20 | 101 | 0.0 | 0.0 | 0.00 | 0.00 | 0.00 | 66 | 1010.7 |
| 20260510021525 | 21 | 101 | 1.6 | 4.8 | 0.00 | 0.00 | 0.00 | 60 | 1010.5 |
| 20260510020055 | 22 | 102 | 0.0 | 4.8 | 0.00 | 0.00 | 0.00 | 52 | 1010.3 |
| 20260510014525 | 23 | 160 | 1.6 | 4.8 | 0.00 | 0.00 | 0.00 | 49 | 1010.0 |
| 20260510013057 | 24 | 204 | 0.0 | 4.8 | 0.00 | 0.00 | 0.00 | 47 | 1009.7 |
| 20260510011534 | 25 | 183 | 1.6 | 8.0 | 0.00 | 0.00 | 0.00 | 44 | 1009.5 |
| 20260510010056 | 25 | 359 | 1.6 | 3.2 | 0.00 | 0.00 | 0.00 | 44 | 1009.4 |
| 20260510004525 | 26 | 359 | 3.2 | 6.4 | 0.00 | 0.00 | 0.00 | 43 | 1009.2 |
| 20260510003116 | 27 | 359 | 3.2 | 4.8 | 0.00 | 0.00 | 0.00 | 36 | 1009.1 |
| 20260510001529 | 28 | 359 | 0.0 | 3.2 | 0.00 | 0.00 | 0.00 | 34 | 1009.0 |
| 20260509234529 | 28 | 359 | 0.0 | 6.4 | 0.00 | 0.00 | 0.00 | 34 | 1009.1 |
| 20260509233057 | 28 | 359 | 3.2 | 8.0 | 0.00 | 0.00 | 0.00 | 35 | 1009.0 |
| 20260509231531 | 28 | 235 | 4.8 | 12.9 | 0.00 | 0.00 | 0.00 | 34 | 1009.1 |
| 20260509230108 | 29 | 205 | 1.6 | 9.7 | 0.00 | 0.00 | 0.00 | 32 | 1009.0 |
| 20260509224526 | 29 | 208 | 0.0 | 6.4 | 0.00 | 0.00 | 0.00 | 31 | 1009.0 |
| 20260509223101 | 29 | 196 | 1.6 | 6.4 | 0.00 | 0.00 | 0.00 | 29 | 1009.0 |
| 20260509221527 | 29 | 281 | 3.2 | 6.4 | 0.00 | 0.00 | 0.00 | 28 | 1009.1 |
| 20260509220058 | 29 | 359 | 3.2 | 8.0 | 0.00 | 0.00 | 0.00 | 28 | 1009.1 |
| 20260509214527 | 29 | 263 | 1.6 | 8.0 | 0.00 | 0.00 | 0.00 | 28 | 1009.1 |
| 20260509213101 | 29 | 265 | 4.8 | 8.0 | 0.00 | 0.00 | 0.00 | 29 | 1009.2 |
| 20260509211528 | 28 | 295 | 3.2 | 9.7 | 0.00 | 0.00 | 0.00 | 29 | 1009.1 |
| 20260509210104 | 28 | 359 | 1.6 | 11.3 | 0.00 | 0.00 | 0.00 | 32 | 1009.2 |
| 20260509204530 | 28 | 174 | 6.4 | 12.9 | 0.00 | 0.00 | 0.00 | 31 | 1009.3 |
| 20260509203100 | 29 | 178 | 3.2 | 6.4 | 0.00 | 0.00 | 0.00 | 29 | 1009.5 |
| 20260509201530 | 30 | 251 | 4.8 | 11.3 | 0.00 | 0.00 | 0.00 | 27 | 1009.8 |
| 20260509200103 | 28 | 359 | 1.6 | 14.5 | 0.00 | 0.00 | 0.00 | 32 | 1010.0 |
| 20260509194535 | 28 | 359 | 4.8 | 12.9 | 0.00 | 0.00 | 0.00 | 33 | 1010.0 |
| 20260509193102 | 28 | 359 | 3.2 | 14.5 | 0.00 | 0.00 | 0.00 | 34 | 1010.1 |
| 20260509191531 | 27 | 237 | 1.6 | 6.4 | 0.00 | 0.00 | 0.00 | 39 | 1010.3 |
| 20260509190101 | 28 | 269 | 4.8 | 9.7 | 0.00 | 0.00 | 0.00 | 34 | 1010.3 |
| 20260509184534 | 27 | 181 | 1.6 | 11.3 | 0.00 | 0.00 | 0.00 | 38 | 1010.3 |
| 20260509183139 | 27 | 359 | 8.0 | 14.5 | 0.00 | 0.00 | 0.00 | 37 | 1010.3 |
| 20260509181542 | 27 | 4.8 | 16.1 | 0.00 | 0.00 | 0.00 | 38 | 1010.3 | |
| 20260509174535 | 27 | 359 | 4.8 | 9.7 | 0.00 | 0.00 | 0.00 | 41 | 1010.5 |
| 20260509173106 | 26 | 359 | 3.2 | 9.7 | 0.00 | 0.00 | 0.00 | 46 | 1010.8 |
| 20260509171532 | 26 | 4.8 | 11.3 | 0.00 | 0.00 | 0.00 | 45 | 1010.9 | |
| 20260509164531 | 25 | 359 | 1.6 | 9.7 | 0.00 | 0.00 | 0.00 | 50 | 1011.0 |
| 20260509163103 | 24 | 359 | 3.2 | 9.7 | 0.00 | 0.00 | 0.00 | 55 | 1011.1 |
| 20260509161535 | 23 | 359 | 4.8 | 8.0 | 0.00 | 0.00 | 0.00 | 60 | 1011.1 |
| 20260509154531 | 21 | 359 | 3.2 | 8.0 | 0.00 | 0.00 | 0.00 | 66 | 1011.2 |
| 20260509153102 | 21 | 359 | 0.0 | 3.2 | 0.00 | 0.00 | 0.00 | 71 | 1011.1 |
| 20260509151531 | 20 | 254 | 0.0 | 4.8 | 0.00 | 0.00 | 0.00 | 72 | 1011.1 |
| 20260509144537 | 18 | 359 | 0.0 | 4.8 | 0.00 | 0.00 | 0.00 | 77 | 1011.3 |
| 20260509143102 | 17 | 359 | 1.6 | 4.8 | 0.00 | 0.00 | 0.00 | 81 | 1011.2 |
| 20260509141531 | 16 | 359 | 0.0 | 4.8 | 0.00 | 0.00 | 0.00 | 82 | 1011.2 |
| 20260509140107 | 16 | 289 | 0.0 | 4.8 | 0.00 | 0.00 | 0.00 | 83 | 1011.1 |
| 20260509134532 | 15 | 359 | 1.6 | 4.8 | 0.00 | 0.00 | 0.00 | 85 | 1011.1 |
| 20260509133110 | 14 | 359 | 1.6 | 6.4 | 0.00 | 0.00 | 0.00 | 87 | 1011.1 |
| 20260509131531 | 13 | 359 | 1.6 | 4.8 | 0.00 | 0.00 | 0.00 | 89 | 1010.9 |
| 20260509124532 | 12 | 359 | 1.6 | 4.8 | 0.00 | 0.00 | 0.00 | 93 | 1010.8 |
| 20260509123002 | 11 | 359 | 0.0 | 3.2 | 0.00 | 0.00 | 0.00 | 94 | 1010.8 |
| 20260509121537 | 11 | 359 | 0.0 | 1.6 | 0.00 | 0.00 | 0.00 | 95 | 1010.7 |
| 20260509120002 | 11 | 276 | 0.0 | 0.0 | 0.00 | 0.00 | 0.00 | 94 | 1010.5 |
| 20260509114532 | 11 | 276 | 0.0 | 0.0 | 0.00 | 0.00 | 0.00 | 93 | 1010.3 |
| 20260509113001 | 11 | 276 | 0.0 | 0.0 | 0.00 | 0.00 | 0.00 | 93 | 1010.1 |
| 20260509111532 | 11 | 276 | 0.0 | 0.0 | 0.00 | 0.00 | 0.00 | 92 | 1009.9 |
| 20260509110002 | 11 | 276 | 0.0 | 0.0 | 0.00 | 0.00 | 0.00 | 92 | 1009.7 |
| 20260509104540 | 11 | 276 | 0.0 | 0.0 | 0.00 | 0.00 | 0.00 | 91 | 1009.7 |
| 20260509103003 | 11 | 276 | 0.0 | 0.0 | 0.00 | 0.00 | 0.00 | 90 | 1009.6 |
| 20260509101541 | 12 | 276 | 0.0 | 1.6 | 0.00 | 0.00 | 0.00 | 90 | 1009.7 |
| 20260509100004 | 12 | 276 | 0.0 | 1.6 | 0.00 | 0.00 | 0.00 | 89 | 1009.7 |